Epoch 2013 Aug. 16.0 TT = JDT 2456520.5
T 2013 Aug. 6.93214 TT MPCW
q 0.8001471 (2000.0) P Q
n 0.20172262 Peri. 211.97222 -0.21336160 +0.96509134
a 2.8793844 Node 46.20983 -0.84618414 -0.10483534
e 0.7221118 Incl. 12.14766 -0.48831264 -0.24001720
P 4.89
From 159 observations 2013 Feb. 1-2018 Jan. 16, mean residual 0".5.
Magnitudes Graph
H = 16.5 G = 0.15 [ ,-61] ( - 2013 June 6)
m1 = 16.0 + 5 log d + 25.0 log r(t - 5) [-61, 73] (2013 June 6 - 2013 Oct. 18)
H = 16.5 G = 0.15 [ 73, ] (2013 Oct. 18 - )
* Green curve is: H = 16.5 G = 0.15